Date String (YYYY-MM-DD hh:mm:ss) UTC,Instrument flags,absolute air pressure of the measurement (hPa),sample flow rate (lpm),inlet stack bypass flow (lpm),air temperature of the measurement (°C),ambient temperature measured by the external sensor (°C),aerosol sample conditioner tube jacket temperature (°C),OPC LED temperature (°C),internal box temperature (°C),relative humidity of the measurement (%),span deviation,mass concentration of particles derived from Lorenz-Mie calculation of OPC scattering (μg/m³),mass concentration of particles derived from Lorenz-Mie calculation of OPC scattering (μg/m³),mass concentration of particles derived from Lorenz-Mie calculation of OPC scattering (μg/m³)
DateTimeUTC,F1_M11,P_M11,Q1_M11,Q2_M11,T1_M11,T2_M11,T3_M11,T4_M11,T5_M11,U1_M11,ZSPAN_M11,X2_M11,X0_M11,X1_M11
2023-12-20 13:00:00,SystemResetWarning,0828.4,4.99,000.00,023.4,022.5,000.0,031.6,024.8,13.0,0000.0,0001.04,0001.46,0000.86
2023-12-20 13:01:00,SystemResetWarning,0828.4,5.00,000.00,023.4,022.5,000.0,031.6,024.9,13.0,0000.0,0001.02,0001.44,0000.85
2023-12-20 13:02:00,SystemResetWarning,0828.4,5.00,000.00,023.4,022.5,000.0,031.7,024.8,13.0,0000.0,0001.03,0001.52,0000.85
2023-12-20 13:03:00,SystemResetWarning,0828.4,5.00,000.00,023.4,022.5,000.0,031.7,024.8,12.9,0000.0,0001.06,0001.56,0000.86
2023-12-20 13:04:00,SystemResetWarning,0828.4,5.00,000.00,023.4,022.5,000.0,031.7,024.8,12.9,0000.0,0001.07,0001.56,0000.86
2023-12-20 13:05:00,SystemResetWarning,0828.4,5.00,000.00,023.4,022.5,000.0,031.7,024.8,12.9,0000.0,0001.08,0001.56,0000.86
2023-12-20 13:06:00,SystemResetWarning,0828.4,5.00,000.00,023.4,022.5,000.0,031.7,024.9,12.9,0000.0,0001.04,0001.47,0000.84
2023-12-20 13:07:00,SystemResetWarning,0828.4,5.00,000.00,023.4,022.5,000.0,031.7,024.9,12.9,0000.0,0001.04,0001.46,0000.84
2023-12-20 13:08:00,SystemResetWarning,0828.5,5.00,000.00,023.4,022.6,000.0,031.7,024.8,12.8,0000.0,0001.05,0001.52,0000.84
2023-12-20 13:09:00,SystemResetWarning,0828.5,5.00,000.00,023.4,022.6,000.0,031.7,024.9,12.8,0000.0,0001.05,0001.52,0000.83
2023-12-20 13:10:00,SystemResetWarning,0828.5,5.00,000.00,023.4,022.6,000.0,031.7,024.9,12.7,0000.0,0001.06,0001.64,0000.83
2023-12-20 13:11:00,SystemResetWarning,0828.5,5.00,000.00,023.4,022.6,000.0,031.7,024.9,12.7,0000.0,0001.03,0001.61,0000.83
2023-12-20 13:12:00,SystemResetWarning,0828.6,5.01,000.00,023.5,022.6,000.0,031.7,024.9,12.7,0000.0,0001.03,0001.61,0000.83
2023-12-20 13:13:00,SystemResetWarning,0828.6,4.99,000.00,023.5,022.6,000.0,031.7,024.9,12.6,0000.0,0001.01,0001.52,0000.83
2023-12-20 13:14:00,SystemResetWarning,0828.6,5.00,000.00,023.5,022.6,000.0,031.7,024.9,12.6,0000.0,0000.98,0001.47,0000.82
2023-12-20 13:15:00,SystemResetWarning,0828.6,5.00,000.00,023.5,022.7,000.0,031.7,024.9,12.6,0000.0,0000.96,0001.46,0000.81
2023-12-20 13:16:00,SystemResetWarning,0828.6,5.00,000.00,023.5,022.7,000.0,031.7,024.9,12.6,0000.0,0000.94,0001.44,0000.81
2023-12-20 13:17:00,SystemResetWarning,0828.6,5.00,000.00,023.5,022.7,000.0,031.7,024.9,12.7,0000.0,0000.97,0001.49,0000.81
2023-12-20 13:18:00,SystemResetWarning,0828.6,5.00,000.00,023.5,022.7,000.0,031.7,024.9,12.7,0000.0,0000.97,0001.50,0000.82
2023-12-20 13:19:00,SystemResetWarning,0828.6,5.00,000.00,023.5,022.7,000.0,031.7,024.9,12.7,0000.0,0000.96,0001.67,0000.82
2023-12-20 13:20:00,SystemResetWarning,0828.6,5.00,000.00,023.5,022.7,000.0,031.7,024.9,12.7,0000.0,0000.99,0001.93,0000.82
2023-12-20 13:21:00,SystemResetWarning,0828.6,5.00,000.00,023.5,022.7,000.0,031.7,024.9,12.8,0000.0,0001.00,0001.89,0000.81
2023-12-20 13:22:00,SystemResetWarning,0828.6,5.00,000.00,023.5,022.7,000.0,031.8,024.9,12.8,0000.0,0001.00,0001.86,0000.81
2023-12-20 13:23:00,SystemResetWarning,0828.6,5.00,000.00,023.5,022.7,000.0,031.8,024.9,12.8,0000.0,0001.02,0001.94,0000.81
2023-12-20 13:24:00,SystemResetWarning,0828.6,5.00,000.00,023.5,022.6,000.0,031.8,024.9,12.7,0000.0,0001.06,0002.04,0000.81
2023-12-20 13:25:00,SystemResetWarning,0828.6,5.00,000.00,023.5,022.6,000.0,031.8,024.9,12.7,0000.0,0001.11,0002.31,0000.82
2023-12-20 13:26:00,SystemResetWarning,0828.6,5.00,000.00,023.5,022.6,000.0,031.8,024.9,12.7,0000.0,0001.13,0002.36,0000.83
2023-12-20 13:27:00,SystemResetWarning,0828.6,5.00,000.00,023.5,022.6,000.0,031.8,024.9,12.7,0000.0,0001.15,0002.39,0000.84
2023-12-20 13:28:00,SystemResetWarning,0828.7,5.00,000.00,023.5,022.6,000.0,031.8,024.9,12.6,0000.0,0001.13,0002.34,0000.83
2023-12-20 13:29:00,SystemResetWarning,0828.7,5.00,000.00,023.5,022.6,000.0,031.8,024.9,12.6,0000.0,0001.14,0002.35,0000.82
2023-12-20 13:30:00,SystemResetWarning,0828.7,5.00,000.00,023.5,022.6,000.0,031.8,024.9,12.6,0000.0,0001.14,0002.12,0000.82
2023-12-20 13:31:00,SystemResetWarning,0828.7,5.00,000.00,023.5,022.6,000.0,031.8,024.9,12.6,0000.0,0001.11,0001.86,0000.82
2023-12-20 13:32:00,SystemResetWarning,0828.7,5.01,000.00,023.5,022.6,000.0,031.8,024.9,12.6,0000.0,0001.09,0001.76,0000.82
2023-12-20 13:33:00,SystemResetWarning,0828.7,5.00,000.00,023.5,022.6,000.0,031.8,024.9,12.8,0000.0,0001.09,0002.29,0000.82
2023-12-20 13:34:00,SystemResetWarning,0828.7,5.01,000.00,023.5,022.6,000.0,031.8,024.9,13.0,0000.0,0001.05,0002.21,0000.82
2023-12-20 13:35:00,SystemResetWarning,0828.8,5.00,000.00,023.5,022.6,000.0,031.8,025.0,12.9,0000.0,0001.04,0002.15,0000.83
2023-12-20 13:36:00,SystemResetWarning,0828.8,5.00,000.00,023.5,022.6,000.0,031.8,024.9,12.8,0000.0,0001.00,0002.04,0000.83
2023-12-20 13:37:00,SystemResetWarning,0828.8,5.00,000.00,023.5,022.6,000.0,031.8,024.9,12.8,0000.0,0000.99,0002.06,0000.83
2023-12-20 13:38:00,SystemResetWarning,0828.8,5.00,000.00,023.5,022.6,000.0,031.8,024.9,12.8,0000.0,0000.97,0002.04,0000.82
2023-12-20 13:39:00,SystemResetWarning,0828.8,5.00,000.00,023.5,022.6,000.0,031.8,024.9,12.8,0000.0,0000.99,0002.11,0000.82
2023-12-20 13:40:00,SystemResetWarning,0828.7,5.00,000.00,023.5,022.6,000.0,031.8,024.9,12.8,0000.0,0000.99,0002.11,0000.84
2023-12-20 13:41:00,SystemResetWarning,0828.8,5.00,000.00,023.5,022.6,000.0,031.8,024.9,12.7,0000.0,0001.00,0002.15,0000.85
2023-12-20 13:42:00,SystemResetWarning,0828.8,5.00,000.00,023.5,022.6,000.0,031.8,024.9,12.7,0000.0,0001.03,0002.31,0000.86
2023-12-20 13:43:00,SystemResetWarning,0828.8,5.00,000.00,023.5,022.6,000.0,031.8,024.9,12.8,0000.0,0001.04,0003.28,0000.87
2023-12-20 13:44:00,SystemResetWarning,0828.8,4.99,000.00,023.5,022.5,000.0,031.8,024.9,12.9,0000.0,0001.05,0002.90,0000.88
2023-12-20 13:45:00,SystemResetWarning,0828.8,5.00,000.00,023.5,022.5,000.0,031.8,024.9,12.9,0000.0,0001.08,0002.80,0000.89
2023-12-20 13:46:00,SystemResetWarning,0828.8,4.99,000.00,023.5,022.5,000.0,031.8,024.9,12.9,0000.0,0001.08,0002.81,0000.90
2023-12-20 13:47:00,SystemResetWarning,0828.7,5.00,000.00,023.5,022.5,000.0,031.8,024.9,13.3,0000.0,0001.07,0002.62,0000.89
2023-12-20 13:48:00,SystemResetWarning,0828.7,5.00,000.00,023.5,022.5,000.0,031.8,024.9,13.6,0000.0,0001.07,0002.53,0000.91
2023-12-20 13:49:00,SystemResetWarning,0828.7,5.00,000.00,023.5,022.5,000.0,031.8,024.9,13.6,0000.0,0001.06,0002.49,0000.91
2023-12-20 13:50:00,SystemResetWarning,0828.8,5.01,000.00,023.5,022.5,000.0,031.8,024.9,13.5,0000.0,0001.04,0002.43,0000.91
2023-12-20 13:51:00,SystemResetWarning,0828.8,5.01,000.00,023.5,022.5,000.0,031.8,024.9,13.4,0000.0,0001.04,0002.43,0000.91
2023-12-20 13:52:00,SystemResetWarning,0828.8,5.00,000.00,023.5,022.5,000.0,031.8,024.9,13.2,0000.0,0001.05,0002.47,0000.91
2023-12-20 13:53:00,SystemResetWarning,0828.8,4.99,000.00,023.5,022.5,000.0,031.8,024.9,13.2,0000.0,0001.06,0002.48,0000.91
2023-12-20 13:54:00,SystemResetWarning,0828.7,4.99,000.00,023.5,022.5,000.0,031.8,024.9,13.3,0000.0,0001.06,0001.53,0000.92
2023-12-20 13:55:00,SystemResetWarning,0828.8,4.99,000.00,023.5,022.5,000.0,031.8,024.8,13.4,0000.0,0001.09,0001.58,0000.92
2023-12-20 13:56:00,SystemResetWarning,0828.8,5.00,000.00,023.5,022.5,000.0,031.8,024.9,13.3,0000.0,0001.11,0001.69,0000.92
2023-12-20 13:57:00,SystemResetWarning,0828.8,5.00,000.00,023.5,022.4,000.0,031.8,024.9,13.3,0000.0,0001.13,0001.78,0000.92
2023-12-20 13:58:00,SystemResetWarning,0828.8,5.00,000.00,023.5,022.4,000.0,031.8,024.9,13.7,0000.0,0001.15,0001.91,0000.92
2023-12-20 13:59:00,SystemResetWarning,0828.8,5.00,000.00,023.5,022.4,000.0,031.8,024.8,13.7,0000.0,0001.19,0002.13,0000.92
